Regional Weather Roundup
Issued by NWS

Home | Current Version | Previous Version | Text Only | Print | Product List | Glossary On
Versions: 1 2 3 4 5 6 7 8 9 10 11 12 13 14 15 16 17 18 19 20 21 22 23 24 25 26 27
000
ASUS45 KBOU 180207
RWRCO

WEATHER ROUNDUP FOR COLORADO
NATIONAL WEATHER SERVICE DENVER/BOULDER CO
700 PM MST TUE JAN 17 2017

NOTE: "FAIR" INDICATES FEW OR NO CLOUDS BELOW 12000 FEET WITH NO
SIGNIFICANT WEATHER AND/OR OBSTRUCTIONS TO VISIBILITY.

COZ001>005-013-030-031-180300-
...NORTHWEST COLORADO...

CITY           SKY/WX    TMP DP  RH WIND       PRES   REMARKS
CRAIG          FOG       16  13  88 CALM      30.21S VSB 1/4
HAYDEN         CLOUDY    14  10  85 NE3       30.19S VSB<1/4
MEEKER         FAIR      18  15  88 CALM      30.18S
MOUNT WERNER   NOT AVBL
STEAMBOAT SPGS FAIR      18  15  89 CALM      30.18S
WALDEN           N/A    N/A N/A N/A CALM      30.17F VSB 1/4
$$

COZ006>008-011-180300-
...WEST CENTRAL VALLEYS...

CITY           SKY/WX    TMP DP  RH WIND       PRES   REMARKS
GRAND JUNCTION FAIR      32  30  92 CALM      30.16S
MONTROSE       CLOUDY    39  31  72 CALM      30.18S
EAGLE          CLEAR     27  21  80 CALM      30.21R
RIFLE          FAIR      30  24  78 CALM      30.17S
DELTA          CLOUDY    42  32  68 W5        30.17S
NUCLA          CLOUDY    37  28  70 N3        30.18S
$$

COZ017>023-064>068-180300-
...SOUTHWEST COLORADO...

CITY           SKY/WX    TMP DP  RH WIND       PRES   REMARKS
DURANGO        CLOUDY    36  30  79 SW7       30.12S
CORTEZ         CLOUDY    40  34  79 W3        30.15R
PAGOSA SPRINGS CLOUDY    34  33  96 CALM      30.13S
TELLURIDE      CLOUDY    29  24  80 CALM      30.17S
WOLF CREEK PAS CLOUDY    18  18 100 SW5       30.19R WCI  11
$$

COZ009-010-012-014-032>034-037-058>063-180300-
...CENTRAL COLORADO...

CITY           SKY/WX    TMP DP  RH WIND       PRES   REMARKS
ASPEN          FAIR      25  19  78 CALM      30.15S
BUENA VISTA    FAIR      15  10  80 W6        30.10S WCI   7
COPPER MTN     FAIR      21  16  79 MISG      30.17F HAZE
BERTHOUD PASS  NOT AVBL
COTTONWOOD PAS FAIR      32  18  55 W13       30.11F WCI  22
GUNNISON       CLOUDY    18  16  92 E6        30.18S WCI  10
KREMMLING      FAIR      19  16  86 CALM      30.20S
LEADVILLE      FAIR      18  12  77 N5        30.13R WCI  11
MONARCH PASS   CLOUDY    19  16  86 MISG      30.25S
SALIDA         FAIR      33  24  69 W9        30.17S WCI  25
SUNLIGHT       FAIR      19  18  93 E3        30.21R
WILKERSON PASS MOCLDY    23  12  63 NE10      30.16R WCI  12
$$

COZ069>075-180300-
...SAN LUIS VALLEY/SANGRE DE CRISTO MOUNTAINS...

CITY           SKY/WX    TMP DP  RH WIND       PRES   REMARKS
ALAMOSA        MOCLDY    24  23  96 SW7       30.11S WCI  16
LA VETA PASS   CLOUDY    23  21  93 NE20      30.10S FOG     WCI   8
SAGUACHE       FAIR      23  23 100 CALM      30.12S
$$

COZ035-036-038>040-180300-
...NORTHERN COLORADO FRONT RANGE...

CITY           SKY/WX    TMP DP  RH WIND       PRES   REMARKS
DENVER INTL AP FAIR      30  24  78 SW7       30.02S WCI  23
DMNS CITY PARK   N/A     33  27  80 E8G14     30.03S WCI  26
AURORA         PTCLDY    28  16  61 S9        30.03S WCI  19
FRONT RANGE AP CLEAR     28  25  86 S8        30.03S WCI  20
ERIE MUNI ARPT FAIR      24  22  94 S3        30.02S
BOULDER MUN AP FAIR      34  30  86 CALM      30.02S
CENTENNIAL     FAIR      34  25  69 SW5       30.03R WCI  30
BROOMFIELD     CLEAR     32  25  74 CALM      30.02F
FORT COLLINS   FAIR      34  25  69 S6        30.02S WCI  29
LONGMONT       FAIR      26  21  83 SW3       30.04S
$$

COZ041-046-047-076>085-087-088-180300-
...PIKES PEAK/PALMER DIVIDE AND SOUTHERN FOOTHILLS...

CITY           SKY/WX    TMP DP  RH WIND       PRES   REMARKS
COLO. SPRINGS  FAIR      30  24  78 N7        30.03F WCI  23
A. F. ACADEMY  FAIR      27  23  82 N7        30.03S WCI  20
SCHRIEVER AFB  NOT AVBL
ELLICOTT       FAIR     N/A N/A N/A CALM      30.02S
FALCON         FAIR      28  23  81 NW7       30.04S WCI  21
FORT CARSON    NOT AVBL
LIMON          FAIR      22  21  96 N5        30.02S WCI  16
MONUMENT HILL  FAIR      21  10  63 SW3       30.05F
TRINIDAD       FAIR      25  19  78 CALM      30.03R
$$

COZ042>045-048>051-090-091-180300-
...NORTHEAST COLORADO...

CITY           SKY/WX    TMP DP  RH WIND       PRES   REMARKS
GREELEY ARPT   FAIR      32  28  85 CALM      30.03S
AKRON          FAIR      30  24  78 SW9       30.00F WCI  22
BURLINGTON     FAIR      31  28  89 SW9       30.03S WCI  23
WRAY           FAIR      32  32 100 W7        30.01F WCI  26
STERLING       FAIR      27  25  93 SW3       30.01R
HOLYOKE        FAIR      25  21  86 W9        30.01S WCI  15
FORT MORGAN    FAIR      30  25  83 W7        30.02S WCI  23
$$

COZ086-089-092>099-180300-
...SOUTHEAST COLORADO...

CITY           SKY/WX    TMP DP  RH WIND       PRES   REMARKS
PUEBLO         FOG       30  28  92 S6        30.04R VSB 1/4 WCI  24
LA JUNTA       FOG       25  23  92 SW7       30.06R VSB 1/2 WCI  17
LAMAR          FAIR      27  25  92 S8        30.06R WCI  19
SPRINGFIELD      N/A     34  30  85 S6        30.05R WCI  29
$$




USA.gov is the U.S. government's official web portal to all federal, state and local government web resources and services.